Huvudsida
METAR-TAF:

METAR-TAF

Flygplatser :

Leknes flygplats

Leknes, Norge

latitud: 68-09N, longitud: 013-37E, höjd: 2 m

Aktuellt väderrapport

Denna rapport gjordes för 32 minuter sedan, klockan 09:20 UTC
Vind 10 kt från syd
Temperatur 4°C
Fuktighet 81%
Tryck 1026 hPa
Sikt 10 km eller mer
Spridda moln på en höjd av 1500 ft
Brutna moln på en höjd av 2000 ft
lätta regnskurar

METAR: ENLK 150920Z 17010KT 9999 -SHRA SCT015 BKN020 04/01 Q1026

Tid: 10:52 (09:52 UTC)


TAF: saknas

Aktuella väderrapporter och prognoser från 4000 flygplatser (METAR- och TAF-rapporter).

De tillgängliga stationerna syns som gula och röda prickar på kartan.

För musen över prickarna för att se namnen på stationerna.

Klicka sedan för att få väderrapporter och prognoser.

För att ändra kartan: Klicka på de gröna knapparna med ett svart kors på för att zooma in; den gröna knappen med ett streck på för att zooma ut; eller på de gröna pilarna för angränsande kartor.


METAR-TAF: